Location: Balcones
(3.7244°N, 75.6017°W)
Time: 01:13:24
(UTC+00:00)

IRS-P3 - Pass Details

Date: 13 December 2025
Orbit: 810 x 815 km, 99.0° (Epoch: 20 January)

Event Time Altitude Azimuth Distance (km) Brightness Sun altitude
Rises 23:27:11 0° 167° (SSE) 3,335 7.4 -8.4°
Reaches altitude 10° 23:29:32 10° 168° (SSE) 2,402 6.7 -9.0°
Maximum altitude 23:34:51 89° 257° (WSW) 817 4.2 -10.2°
Drops below altitude 10° 23:40:09 10° 347° (NNW) 2,392 6.5 -11.4°
Sets 23:42:29 0° 347° (NNW) 3,321 7.2 -11.9°
